Racecast

UIL 2A District 04

Mae Simmons Park · 2092mDistance corrected. This race was listed at 3218 m; times are rated at the verified 2092 m. Is the correction wrong? Report it → · Girls · Junior High · 2018-10-10 · TX

Course difficulty: —

Race-day weather: 53°F · wind 5 mph · humidity 64%

View full meet →

Team scores

Place Team Points 12345 67
1 Carr (TX) 28 3 4 5 7 9 13 20
2 Ralls (TX) 39 1 2 8 12 14 17 18
3 Lockney (TX) 92 6 10 15 25 31 32 33
4 Post (WA) 94 11 16 26 27 29
5 Floydada (TX) 114 19 21 22 23 24 28 30

As scored by the meet.

Results

Place Athlete Grade School Time Rating Points
1 Madison Navarro 8 Ralls (TX) 1 13:26.5 PR 84.3 1
2 Brooklyn Villegas - Ralls (TX) 2 13:37.5 PR 83.2 2
3 Mariyah Espinosa 7 Carr (TX) 1 13:52.5 PR 81.7 3
4 Layla Juarez 7 Carr (TX) 2 14:00.6 PR 80.9 4
5 Mia Calderon 7 Carr (TX) 3 14:05.8 PR 80.4 5
6 Analys Jones 7 Lockney (TX) 1 14:46.4 PR 76.7 6
7 Keyaira Mata 7 Carr (TX) 4 14:50.1 PR 76.4 7
8 Sofie Doolittle 8 Ralls (TX) 3 14:50.4 PR 76.3 8
9 Mari Cantu 8 New Deal (TX) 1 14:50.8 PR 76.3
10 Chasidy Pineda 7 Carr (TX) 5 14:58.9 PR 75.6 9
11 Chelsy Rodriguez 8 Post (WA) 1 15:00 PR 75.5 10
12 Madison Johnson 8 Lockney (TX) 2 15:02.4 PR 75.3 11
13 Alaniz Alamiz - Post (WA) 2 15:08.2 PR 74.8 12
14 Mariah Fierro - Ralls (TX) 4 15:13.9 PR 74.4 13
15 Yahaira Ortega 7 Carr (TX) 6 15:16.8 PR 74.1 14
16 Cadence Yocom 8 Ralls (TX) 5 15:23.9 PR 73.6 15
17 Mariah Salas 7 Lockney (TX) 3 15:39 PR 72.4 16
18 Zaran Kirkpatrick 7 Post (WA) 3 15:40.8 PR 72.2 17
19 Maddisyn Webb 8 New Deal (TX) 2 15:41.3 PR 72.2
20 Illiana Salazar 7 Ralls (TX) 6 15:55.9 PR 71.1 18
21 Mikeala Alcala SR Ralls (TX) 7 15:57.3 PR 71.0 19
22 Elektra Monroe 8 Floydada (TX) 1 16:03.4 PR 70.5 20
23 Destiny Sells 7 Carr (TX) 7 16:07.1 PR 70.3 21
24 Makayla Espinosa 8 Carr (TX) 8 16:25.5 PR 69.0
25 Chloe Baca 7 Carr (TX) 9 16:29.8 PR 68.7
26 Faith Lopez 8 Floydada (TX) 2 16:31.3 PR 68.6 22
27 Jocelyn Zamudio 8 Carr (TX) 10 16:34.5 PR 68.3
28 Malaya Martin 7 Carr (TX) 11 16:42.6 PR 67.8
29 Miya Fipps - Floydada (TX) 3 17:02.3 PR 66.5 23
30 Ali Gonzales 10 Floydada (TX) 4 17:07.3 PR 57.3 24
31 Clarissa Ramos 8 Floydada (TX) 5 17:11.7 PR 65.9 25
32 Jaelynn Reyes - Lockney (TX) 4 17:33.7 PR 64.5 26
33 Alex Hernandez 7 Post (WA) 4 17:58.3 PR 63.0 27
34 Malazia Pardue 7 Post (WA) 5 18:06.6 PR 62.6 28
35 Camryn Cowley 8 Post (WA) 6 18:11.5 PR 62.3 29
36 Sierra Snowden 7 Floydada (TX) 6 18:30 PR 61.2 30
37 Lorena Espinosa 8 Carr (TX) 12 18:42.4 PR 60.6
38 Andrea Esparza 7 Post (WA) 7 19:02.8 PR 59.5 31
39 Emily Norman 7 Post (WA) 8 19:20.5 PR 58.6
40 Victoria Cervera 7 Floydada (TX) 7 19:22.9 PR 58.5 32
41 Brailey Kidd 7 Lockney (TX) 5 19:24.9 PR 58.4 33
42 Aubree Urrutia 7 Lockney (TX) 6 19:26.2 PR 58.3 34
43 Sally Castillo 8 Carr (TX) 13 19:41.6 PR 57.5
44 Adaliyah Jones 7 Lockney (TX) 7 19:46.2 PR 57.3 35
45 Candalee Isom 8 Carr (TX) 14 19:47.3 PR 57.2
46 Analise Perez 7 Floydada (TX) 8 20:43.8 PR 54.6
47 Nadia Jasso - Ralls (TX) 8 20:55.5 PR 54.1
48 Zayli Crone 7 Floydada (TX) 9 21:04.5 PR 53.8
49 Haylee Ovalle - Ralls (TX) 9 23:25.7 PR 48.4
Something wrong on this page? Report it →